Time,TemperatureF,DewpointF,PressureIn,WindDirection,WindDirectionDegrees,WindSpeedMPH,WindSpeedGustMPH,Humidity,HourlyPrecipIn,Conditions,Clouds,dailyrainin,SolarRadiationWatts/m^2,SoftwareType,DateUTC
2013-08-04 00:02:00,80.4,68.0,30.00,ESE,105,0.0,0.0,66,0.00,CLR,,0.00,0.0,WeatherDisplay:10.37,2013-08-04 05:02:00,
2013-08-04 00:07:00,80.4,68.0,30.01,ESE,105,1.3,4.6,66,0.00,CLR,,0.00,0.0,WeatherDisplay:10.37,2013-08-04 05:07:00,
2013-08-04 00:12:00,80.4,68.0,30.01,ESE,105,1.3,5.8,66,0.00,CLR,,0.00,0.0,WeatherDisplay:10.37,2013-08-04 05:12:00,
2013-08-04 00:17:00,79.8,68.3,30.01,ESE,105,0.0,3.5,68,0.00,CLR,,0.00,0.0,WeatherDisplay:10.37,2013-08-04 05:17:00,
2013-08-04 00:22:00,79.7,68.2,30.00,ESE,105,0.4,2.0,68,0.00,CLR,,0.00,0.0,WeatherDisplay:10.37,2013-08-04 05:22:00,
2013-08-04 00:27:00,79.6,68.1,30.00,ESE,105,0.3,2.3,68,0.00,CLR,,0.00,0.0,WeatherDisplay:10.37,2013-08-04 05:27:00,
2013-08-04 00:32:00,79.3,67.8,30.01,ESE,105,0.0,0.0,68,0.00,CLR,,0.00,0.0,WeatherDisplay:10.37,2013-08-04 05:32:00,
2013-08-04 00:37:00,79.1,68.1,30.01,ESE,105,0.0,0.0,69,0.00,CLR,,0.00,0.0,WeatherDisplay:10.37,2013-08-04 05:37:00,
2013-08-04 00:42:00,78.6,68.0,30.01,ESE,105,0.0,0.0,70,0.00,CLR,,0.00,0.0,WeatherDisplay:10.37,2013-08-04 05:42:00,
2013-08-04 00:47:00,78.2,68.0,30.01,ESE,105,0.0,0.0,71,0.00,CLR,,0.00,0.0,WeatherDisplay:10.37,2013-08-04 05:47:00,
2013-08-04 00:52:00,78.3,68.1,30.00,ESE,105,0.0,3.5,71,0.00,CLR,,0.00,0.0,WeatherDisplay:10.37,2013-08-04 05:52:00,
2013-08-04 00:57:00,78.1,68.3,30.00,ESE,105,0.0,0.0,72,0.00,CLR,,0.00,0.0,WeatherDisplay:10.37,2013-08-04 05:57:00,
2013-08-04 01:02:00,77.9,68.5,30.00,ESE,105,0.2,2.3,73,0.00,CLR,,0.00,0.0,WeatherDisplay:10.37,2013-08-04 06:02:00,
2013-08-04 01:07:00,77.7,68.4,30.00,ESE,105,0.0,0.0,73,0.00,CLR,,0.00,0.0,WeatherDisplay:10.37,2013-08-04 06:07:00,
2013-08-04 01:12:00,77.3,68.4,30.00,ESE,105,0.0,2.3,74,0.00,CLR,,0.00,0.0,WeatherDisplay:10.37,2013-08-04 06:12:00,
2013-08-04 01:17:00,77.4,68.5,30.00,ESE,105,1.1,3.5,74,0.00,CLR,,0.00,0.0,WeatherDisplay:10.37,2013-08-04 06:17:00,
2013-08-04 01:22:00,78.2,68.8,29.99,ESE,105,1.9,4.6,73,0.00,CLR,,0.00,0.0,WeatherDisplay:10.37,2013-08-04 06:22:00,
2013-08-04 01:27:00,78.5,69.1,29.99,ESE,105,1.8,7.0,73,0.00,CLR,,0.00,0.0,WeatherDisplay:10.37,2013-08-04 06:27:00,
2013-08-04 01:32:00,78.6,69.2,29.99,ESE,105,1.5,5.0,73,0.00,CLR,,0.00,0.0,WeatherDisplay:10.37,2013-08-04 06:32:00,
2013-08-04 01:37:00,78.6,69.2,29.99,ESE,106,3.8,8.1,73,0.00,CLR,,0.00,0.0,WeatherDisplay:10.37,2013-08-04 06:37:00,
2013-08-04 01:42:00,78.5,69.5,29.99,ESE,106,3.2,6.9,74,0.00,CLR,,0.00,0.0,WeatherDisplay:10.37,2013-08-04 06:42:00,
2013-08-04 01:47:00,78.7,69.7,29.99,ESE,106,1.2,4.0,74,0.00,CLR,,0.00,0.0,WeatherDisplay:10.37,2013-08-04 06:47:00,
2013-08-04 01:52:00,78.7,69.7,29.99,ESE,108,2.4,6.9,74,0.00,CLR,,0.00,0.0,WeatherDisplay:10.37,2013-08-04 06:52:00,
2013-08-04 01:57:00,78.5,69.9,29.99,ESE,108,3.3,6.9,75,0.00,CLR,,0.00,0.0,WeatherDisplay:10.37,2013-08-04 06:57:00,
2013-08-04 02:02:00,78.6,70.0,29.99,ESE,110,2.7,5.8,75,0.00,CLR,,0.00,0.0,WeatherDisplay:10.37,2013-08-04 07:02:00,
2013-08-04 02:07:00,78.5,70.3,29.99,ESE,110,1.3,4.0,76,0.00,CLR,,0.00,0.0,WeatherDisplay:10.37,2013-08-04 07:07:00,
2013-08-04 02:12:00,78.2,70.4,29.99,ESE,110,0.5,2.3,77,0.00,CLR,,0.00,0.0,WeatherDisplay:10.37,2013-08-04 07:12:00,
2013-08-04 02:17:00,78.2,70.4,29.98,ESE,110,2.2,4.6,77,0.00,CLR,,0.00,0.0,WeatherDisplay:10.37,2013-08-04 07:17:00,
2013-08-04 02:22:00,77.8,70.4,29.98,ESE,110,1.9,4.6,78,0.00,CLR,,0.00,0.0,WeatherDisplay:10.37,2013-08-04 07:22:00,
2013-08-04 02:27:00,77.7,70.3,29.98,ESE,110,0.2,4.6,78,0.00,CLR,,0.00,0.0,WeatherDisplay:10.37,2013-08-04 07:27:00,
2013-08-04 02:32:00,77.5,70.5,29.98,ESE,110,0.6,2.3,79,0.00,CLR,,0.00,0.0,WeatherDisplay:10.37,2013-08-04 07:32:00,
2013-08-04 02:37:00,77.4,70.4,29.97,ESE,110,2.3,5.0,79,0.00,CLR,,0.00,0.0,WeatherDisplay:10.37,2013-08-04 07:37:00,
2013-08-04 02:42:00,77.3,70.6,29.97,ESE,110,0.7,3.5,80,0.00,CLR,,0.00,0.0,WeatherDisplay:10.37,2013-08-04 07:42:00,
2013-08-04 02:47:00,77.1,70.5,29.97,ESE,110,1.9,3.5,80,0.00,CLR,,0.00,0.0,WeatherDisplay:10.37,2013-08-04 07:47:00,
2013-08-04 02:52:00,77.0,70.4,29.97,ESE,110,2.7,6.0,80,0.00,CLR,,0.00,0.0,WeatherDisplay:10.37,2013-08-04 07:52:00,
2013-08-04 02:57:00,76.8,70.5,29.97,ESE,110,1.7,4.6,81,0.00,CLR,,0.00,0.0,WeatherDisplay:10.37,2013-08-04 07:57:00,
2013-08-04 03:02:00,77.0,70.7,29.97,ESE,112,3.3,5.0,81,0.00,CLR,,0.00,0.0,WeatherDisplay:10.37,2013-08-04 08:02:00,
2013-08-04 03:07:00,77.1,70.5,29.97,ESE,112,2.9,5.8,80,0.00,CLR,,0.00,0.0,WeatherDisplay:10.37,2013-08-04 08:07:00,
2013-08-04 03:12:00,77.1,70.5,29.97,ESE,112,0.8,3.5,80,0.00,CLR,,0.00,0.0,WeatherDisplay:10.37,2013-08-04 08:12:00,
2013-08-04 03:17:00,76.9,70.6,29.97,ESE,112,1.6,5.8,81,0.00,CLR,,0.00,0.0,WeatherDisplay:10.37,2013-08-04 08:17:00,
2013-08-04 03:22:00,76.8,70.5,29.97,ESE,112,0.3,3.5,81,0.00,CLR,,0.00,0.0,WeatherDisplay:10.37,2013-08-04 08:22:00,
2013-08-04 03:27:00,76.6,70.3,29.97,ESE,112,0.8,4.0,81,0.00,CLR,,0.00,0.0,WeatherDisplay:10.37,2013-08-04 08:27:00,
2013-08-04 03:32:00,76.3,70.4,29.97,ESE,112,0.2,2.3,82,0.00,CLR,,0.00,0.0,WeatherDisplay:10.37,2013-08-04 08:32:00,
2013-08-04 03:37:00,76.2,70.3,29.97,ESE,112,0.2,1.2,82,0.00,CLR,,0.00,0.0,WeatherDisplay:10.37,2013-08-04 08:37:00,
2013-08-04 03:42:00,76.1,70.2,29.98,ESE,112,0.1,1.2,82,0.00,CLR,,0.00,0.0,WeatherDisplay:10.37,2013-08-04 08:42:00,
2013-08-04 03:47:00,75.9,70.4,29.98,ESE,112,0.3,2.3,83,0.00,CLR,,0.00,0.0,WeatherDisplay:10.37,2013-08-04 08:47:00,
2013-08-04 03:52:00,75.4,69.9,29.98,ESE,112,0.0,0.0,83,0.00,CLR,,0.00,0.0,WeatherDisplay:10.37,2013-08-04 08:52:00,
2013-08-04 03:57:00,75.1,70.3,29.99,ESE,112,0.0,0.0,85,0.00,CLR,,0.00,0.0,WeatherDisplay:10.37,2013-08-04 08:57:00,
2013-08-04 04:02:00,74.7,69.9,29.99,ESE,112,0.0,0.0,85,0.00,CLR,,0.00,0.0,WeatherDisplay:10.37,2013-08-04 09:02:00,
2013-08-04 04:07:00,74.5,70.0,29.99,ESE,112,0.0,0.0,86,0.00,CLR,,0.00,0.0,WeatherDisplay:10.37,2013-08-04 09:07:00,
2013-08-04 04:12:00,74.3,69.8,29.99,ESE,112,0.0,0.0,86,0.00,CLR,,0.00,0.0,WeatherDisplay:10.37,2013-08-04 09:12:00,
2013-08-04 04:17:00,74.1,69.6,30.00,ESE,112,0.0,0.0,86,0.00,CLR,,0.00,0.0,WeatherDisplay:10.37,2013-08-04 09:17:00,
2013-08-04 04:22:00,73.9,69.8,30.00,ESE,112,0.0,0.0,87,0.00,CLR,,0.00,0.0,WeatherDisplay:10.37,2013-08-04 09:22:00,
2013-08-04 04:27:00,73.7,69.6,30.00,ESE,112,0.0,0.0,87,0.00,CLR,,0.00,0.0,WeatherDisplay:10.37,2013-08-04 09:27:00,
2013-08-04 04:32:00,73.6,69.8,30.00,ESE,112,0.0,0.0,88,0.00,CLR,,0.00,0.0,WeatherDisplay:10.37,2013-08-04 09:32:00,
2013-08-04 04:37:00,73.7,69.9,30.00,ESE,112,0.0,0.0,88,0.00,CLR,,0.00,0.0,WeatherDisplay:10.37,2013-08-04 09:37:00,
2013-08-04 04:42:00,73.6,69.8,30.00,ESE,112,0.0,0.0,88,0.00,CLR,,0.00,0.0,WeatherDisplay:10.37,2013-08-04 09:42:00,
2013-08-04 04:47:00,73.5,69.7,30.00,ESE,112,0.0,0.0,88,0.00,CLR,,0.00,0.0,WeatherDisplay:10.37,2013-08-04 09:47:00,
2013-08-04 04:52:00,73.8,69.7,30.00,ESE,112,0.0,0.0,87,0.00,CLR,,0.00,0.0,WeatherDisplay:10.37,2013-08-04 09:52:00,
2013-08-04 04:57:00,73.8,69.7,30.00,ESE,112,0.0,0.0,87,0.00,CLR,,0.00,0.0,WeatherDisplay:10.37,2013-08-04 09:57:00,
2013-08-04 05:02:00,73.6,69.5,30.00,ESE,112,0.0,0.0,87,0.00,CLR,,0.00,0.0,WeatherDisplay:10.37,2013-08-04 10:02:00,
2013-08-04 05:07:00,73.3,69.5,30.00,ESE,112,0.0,0.0,88,0.00,CLR,,0.00,0.0,WeatherDisplay:10.37,2013-08-04 10:07:00,
2013-08-04 05:12:00,73.0,69.6,30.00,ESE,112,0.0,0.0,89,0.00,CLR,,0.00,0.0,WeatherDisplay:10.37,2013-08-04 10:12:00,
2013-08-04 05:17:00,72.9,69.5,30.00,ESE,112,0.0,0.0,89,0.00,CLR,,0.00,0.0,WeatherDisplay:10.37,2013-08-04 10:17:00,
2013-08-04 05:22:00,72.7,69.3,30.00,ESE,112,0.1,3.5,89,0.00,CLR,,0.00,0.0,WeatherDisplay:10.37,2013-08-04 10:22:00,
2013-08-04 05:27:00,72.5,69.1,30.00,ESE,112,0.0,0.0,89,0.00,CLR,,0.00,0.0,WeatherDisplay:10.37,2013-08-04 10:27:00,
2013-08-04 05:32:00,72.4,69.0,30.01,ESE,112,0.0,0.0,89,0.00,CLR,,0.00,0.0,WeatherDisplay:10.37,2013-08-04 10:32:00,
2013-08-04 05:37:00,72.4,69.0,30.01,ESE,112,0.0,0.0,89,0.00,CLR,,0.00,0.0,WeatherDisplay:10.37,2013-08-04 10:37:00,
2013-08-04 05:42:00,72.4,69.3,30.01,ESE,112,0.0,0.0,90,0.00,CLR,,0.00,0.0,WeatherDisplay:10.37,2013-08-04 10:42:00,
2013-08-04 05:47:00,72.4,69.0,30.01,ESE,112,0.0,0.0,89,0.00,CLR,,0.00,0.0,WeatherDisplay:10.37,2013-08-04 10:47:00,
2013-08-04 05:52:00,72.4,69.0,30.01,ESE,112,0.0,0.0,89,0.00,CLR,,0.00,0.0,WeatherDisplay:10.37,2013-08-04 10:52:00,
2013-08-04 05:57:00,72.4,69.0,30.01,ESE,112,0.0,0.0,89,0.00,CLR,,0.00,0.0,WeatherDisplay:10.37,2013-08-04 10:57:00,
2013-08-04 06:02:00,72.3,69.2,30.01,ESE,112,0.0,0.0,90,0.00,CLR,,0.00,0.0,WeatherDisplay:10.37,2013-08-04 11:02:00,
2013-08-04 06:07:00,72.3,69.2,30.01,ESE,112,0.0,0.0,90,0.00,CLR,,0.00,0.0,WeatherDisplay:10.37,2013-08-04 11:07:00,
2013-08-04 06:12:00,72.9,69.5,30.01,ESE,112,0.0,0.0,89,0.00,CLR,,0.00,0.0,WeatherDisplay:10.37,2013-08-04 11:12:00,
2013-08-04 06:17:00,72.8,69.0,30.02,ESE,112,0.0,0.0,88,0.00,CLR,,0.00,0.0,WeatherDisplay:10.37,2013-08-04 11:17:00,
2013-08-04 06:22:00,72.6,68.8,30.02,ESE,112,0.0,0.0,88,0.00,CLR,,0.00,0.0,WeatherDisplay:10.37,2013-08-04 11:22:00,
2013-08-04 06:27:00,72.3,68.9,30.02,ESE,112,0.0,0.0,89,0.00,CLR,,0.00,0.0,WeatherDisplay:10.37,2013-08-04 11:27:00,
2013-08-04 06:32:00,72.3,68.9,30.02,ESE,112,0.0,0.0,89,0.00,CLR,,0.00,0.0,WeatherDisplay:10.37,2013-08-04 11:32:00,
2013-08-04 06:37:00,72.4,69.0,30.02,ESE,112,0.0,0.0,89,0.00,CLR,,0.00,0.0,WeatherDisplay:10.37,2013-08-04 11:37:00,
2013-08-04 06:42:00,72.5,69.1,30.02,ESE,112,0.0,0.0,89,0.00,CLR,,0.00,0.0,WeatherDisplay:10.37,2013-08-04 11:42:00,
2013-08-04 06:47:00,72.6,69.2,30.02,ESE,112,0.0,0.0,89,0.00,CLR,,0.00,5.5,WeatherDisplay:10.37,2013-08-04 11:47:00,
2013-08-04 06:52:00,72.8,69.4,30.02,ESE,112,0.0,0.0,89,0.00,CLR,,0.00,7.7,WeatherDisplay:10.37,2013-08-04 11:52:00,
2013-08-04 06:57:00,72.8,69.0,30.02,ESE,112,0.0,0.0,88,0.00,CLR,,0.00,12.1,WeatherDisplay:10.37,2013-08-04 11:57:00,
2013-08-04 07:02:00,72.8,69.0,30.02,ESE,112,0.3,1.2,88,0.00,CLR,,0.00,15.4,WeatherDisplay:10.37,2013-08-04 12:02:00,
2013-08-04 07:07:00,73.0,69.6,30.02,ESE,112,0.0,0.0,89,0.00,CLR,,0.00,17.6,WeatherDisplay:10.37,2013-08-04 12:07:00,
2013-08-04 07:12:00,73.3,69.5,30.02,ESE,112,0.0,1.2,88,0.00,CLR,,0.00,23.1,WeatherDisplay:10.37,2013-08-04 12:12:00,
2013-08-04 07:17:00,73.5,69.7,30.02,ESE,112,0.0,0.0,88,0.00,CLR,,0.00,25.3,WeatherDisplay:10.37,2013-08-04 12:17:00,
2013-08-04 07:22:00,73.7,69.9,30.02,ESE,112,0.0,0.0,88,0.00,CLR,,0.00,28.6,WeatherDisplay:10.37,2013-08-04 12:22:00,
2013-08-04 07:27:00,73.9,70.1,30.02,ESE,112,0.1,4.6,88,0.00,CLR,,0.00,35.2,WeatherDisplay:10.37,2013-08-04 12:27:00,
2013-08-04 07:32:00,74.7,70.6,30.03,ESE,112,0.0,0.0,87,0.00,CLR,,0.00,61.6,WeatherDisplay:10.37,2013-08-04 12:32:00,
2013-08-04 07:37:00,75.5,71.0,30.03,ESE,112,0.0,0.0,86,0.00,CLR,,0.00,51.7,WeatherDisplay:10.37,2013-08-04 12:37:00,
2013-08-04 07:42:00,76.3,71.5,30.03,ESE,112,0.0,0.0,85,0.00,CLR,,0.00,46.2,WeatherDisplay:10.37,2013-08-04 12:42:00,
2013-08-04 07:47:00,76.7,71.5,30.03,ESE,112,0.0,0.0,84,0.00,CLR,,0.00,56.1,WeatherDisplay:10.37,2013-08-04 12:47:00,
2013-08-04 07:52:00,77.1,71.5,30.03,ESE,112,0.2,2.3,83,0.00,CLR,,0.00,71.5,WeatherDisplay:10.37,2013-08-04 12:52:00,
2013-08-04 07:57:00,77.5,71.6,30.04,ESE,112,0.7,1.0,82,0.00,CLR,,0.00,53.9,WeatherDisplay:10.37,2013-08-04 12:57:00,
2013-08-04 08:02:00,78.0,71.7,30.04,ESE,112,1.4,2.3,81,0.00,CLR,,0.00,58.3,WeatherDisplay:10.37,2013-08-04 13:02:00,
2013-08-04 08:08:00,78.3,71.6,30.04,ESE,112,0.4,2.3,80,0.00,CLR,,0.00,58.3,WeatherDisplay:10.37,2013-08-04 13:08:00,
2013-08-04 08:13:00,78.6,71.9,30.04,ESE,112,1.2,4.6,80,0.00,CLR,,0.00,104.5,WeatherDisplay:10.37,2013-08-04 13:13:00,
2013-08-04 08:18:00,79.0,71.9,30.04,ESE,112,0.2,1.2,79,0.00,CLR,,0.00,75.9,WeatherDisplay:10.37,2013-08-04 13:18:00,
2013-08-04 08:23:00,79.2,71.7,30.04,ESE,112,2.6,4.6,78,0.00,CLR,,0.00,115.5,WeatherDisplay:10.37,2013-08-04 13:23:00,
2013-08-04 08:28:00,79.7,72.2,30.05,ESE,112,1.8,4.6,78,0.00,CLR,,0.00,148.5,WeatherDisplay:10.37,2013-08-04 13:28:00,
2013-08-04 08:33:00,80.0,72.1,30.05,ESE,112,0.4,4.0,77,0.00,CLR,,0.00,290.4,WeatherDisplay:10.37,2013-08-04 13:33:00,
2013-08-04 08:38:00,80.9,73.0,30.05,ESE,112,0.4,2.3,77,0.00,CLR,,0.00,352.0,WeatherDisplay:10.37,2013-08-04 13:38:00,
2013-08-04 08:43:00,81.3,72.6,30.05,ESE,112,1.0,3.5,75,0.00,CLR,,0.00,359.7,WeatherDisplay:10.37,2013-08-04 13:43:00,
2013-08-04 08:48:00,81.7,73.0,30.05,ESE,112,2.1,4.6,75,0.00,CLR,,0.00,344.3,WeatherDisplay:10.37,2013-08-04 13:48:00,
2013-08-04 08:53:00,82.2,73.1,30.05,South,189,2.5,5.8,74,0.00,CLR,,0.00,326.7,WeatherDisplay:10.37,2013-08-04 13:53:00,
2013-08-04 08:58:00,82.6,73.5,30.05,SSW,193,3.6,7.0,74,0.00,CLR,,0.00,339.9,WeatherDisplay:10.37,2013-08-04 13:58:00,
2013-08-04 09:03:00,82.6,73.5,30.05,South,191,2.1,5.8,74,0.00,CLR,,0.00,392.7,WeatherDisplay:10.37,2013-08-04 14:03:00,
2013-08-04 09:08:00,83.4,73.8,30.05,South,191,4.4,11.0,73,0.00,CLR,,0.00,411.4,WeatherDisplay:10.37,2013-08-04 14:08:00,
2013-08-04 09:13:00,83.8,73.8,30.05,South,191,3.0,5.8,72,0.00,CLR,,0.00,433.4,WeatherDisplay:10.37,2013-08-04 14:13:00,
2013-08-04 09:18:00,84.4,74.0,30.05,South,187,1.3,3.5,71,0.00,CLR,,0.00,438.9,WeatherDisplay:10.37,2013-08-04 14:18:00,
2013-08-04 09:23:00,84.5,73.2,30.05,South,187,3.8,10.0,69,0.00,CLR,,0.00,421.3,WeatherDisplay:10.37,2013-08-04 14:23:00,
2013-08-04 09:28:00,84.8,73.5,30.05,South,191,6.4,11.5,69,0.00,CLR,,0.00,419.1,WeatherDisplay:10.37,2013-08-04 14:28:00,
2013-08-04 09:33:00,85.1,73.8,30.05,SSW,197,6.5,10.4,69,0.00,CLR,,0.00,431.2,WeatherDisplay:10.37,2013-08-04 14:33:00,
2013-08-04 09:38:00,85.4,74.5,30.05,SSW,199,2.4,9.2,70,0.00,CLR,,0.00,443.3,WeatherDisplay:10.37,2013-08-04 14:38:00,
2013-08-04 09:43:00,86.2,74.8,30.05,SSW,199,2.5,9.0,69,0.00,CLR,,0.00,443.3,WeatherDisplay:10.37,2013-08-04 14:43:00,
2013-08-04 09:48:00,86.0,73.3,30.04,SSW,197,2.1,3.5,66,0.00,CLR,,0.00,452.1,WeatherDisplay:10.37,2013-08-04 14:48:00,
2013-08-04 09:53:00,86.3,74.0,30.05,SSW,196,2.8,4.6,67,0.00,CLR,,0.00,482.9,WeatherDisplay:10.37,2013-08-04 14:53:00,
2013-08-04 09:58:00,86.5,74.2,30.05,South,191,1.9,3.5,67,0.00,CLR,,0.00,471.9,WeatherDisplay:10.37,2013-08-04 14:58:00,
2013-08-04 10:03:00,86.7,74.0,30.05,SSW,200,2.0,5.8,66,0.00,CLR,,0.00,495.0,WeatherDisplay:10.37,2013-08-04 15:03:00,
2013-08-04 10:08:00,87.4,73.7,30.05,SSW,200,2.2,8.1,64,0.00,CLR,,0.00,537.9,WeatherDisplay:10.37,2013-08-04 15:08:00,
2013-08-04 10:13:00,87.6,73.4,30.05,SSW,203,6.6,11.0,63,0.00,CLR,,0.00,561.0,WeatherDisplay:10.37,2013-08-04 15:13:00,
2013-08-04 10:18:00,87.7,74.5,30.05,SSW,205,8.3,10.4,65,0.00,CLR,,0.00,556.6,WeatherDisplay:10.37,2013-08-04 15:18:00,
2013-08-04 10:23:00,88.1,73.9,30.05,SSW,206,5.3,7.0,63,0.00,CLR,,0.00,595.1,WeatherDisplay:10.37,2013-08-04 15:23:00,
2013-08-04 10:28:00,88.5,73.8,30.05,SSW,207,5.9,8.1,62,0.00,CLR,,0.00,610.5,WeatherDisplay:10.37,2013-08-04 15:28:00,
2013-08-04 10:33:00,88.6,73.9,30.05,SSW,212,7.7,11.5,62,0.00,CLR,,0.00,624.8,WeatherDisplay:10.37,2013-08-04 15:33:00,
2013-08-04 10:38:00,88.8,74.1,30.05,SSW,207,5.9,10.0,62,0.00,CLR,,0.00,678.7,WeatherDisplay:10.37,2013-08-04 15:38:00,
2013-08-04 10:43:00,89.1,75.3,30.05,SSW,205,4.9,6.9,64,0.00,CLR,,0.00,684.2,WeatherDisplay:10.37,2013-08-04 15:43:00,
2013-08-04 10:48:00,89.3,72.6,30.04,SSW,205,5.5,10.4,58,0.00,CLR,,0.00,666.6,WeatherDisplay:10.37,2013-08-04 15:48:00,
2013-08-04 10:53:00,89.8,74.1,30.05,SSW,209,8.1,11.5,60,0.00,CLR,,0.00,729.3,WeatherDisplay:10.37,2013-08-04 15:53:00,
2013-08-04 10:58:00,90.2,74.9,30.04,SSW,207,0.9,4.6,61,0.00,CLR,,0.00,734.8,WeatherDisplay:10.37,2013-08-04 15:58:00,
2013-08-04 11:03:00,89.9,74.6,30.04,South,183,1.9,3.5,61,0.00,CLR,,0.00,729.3,WeatherDisplay:10.37,2013-08-04 16:03:00,
2013-08-04 11:08:00,89.9,74.6,30.04,South,176,2.5,5.8,61,0.00,CLR,,0.00,724.9,WeatherDisplay:10.37,2013-08-04 16:08:00,
2013-08-04 11:13:00,89.9,74.6,30.04,South,170,4.0,8.1,61,0.00,CLR,,0.00,752.4,WeatherDisplay:10.37,2013-08-04 16:13:00,
2013-08-04 11:18:00,90.3,74.5,30.04,SSE,168,2.2,5.8,60,0.00,CLR,,0.00,775.5,WeatherDisplay:10.37,2013-08-04 16:18:00,
2013-08-04 11:23:00,90.7,75.4,30.04,SSE,168,4.6,6.9,61,0.00,CLR,,0.00,771.1,WeatherDisplay:10.37,2013-08-04 16:23:00,
2013-08-04 11:28:00,90.5,73.7,30.04,SSE,168,3.3,6.9,58,0.00,CLR,,0.00,788.7,WeatherDisplay:10.37,2013-08-04 16:28:00,
2013-08-04 11:33:00,90.5,74.7,30.03,South,172,3.6,8.1,60,0.00,CLR,,0.00,765.6,WeatherDisplay:10.37,2013-08-04 16:33:00,
2013-08-04 11:38:00,90.8,74.5,30.03,SSE,164,6.0,10.4,59,0.00,CLR,,0.00,804.1,WeatherDisplay:10.37,2013-08-04 16:38:00,
2013-08-04 11:43:00,91.1,75.3,30.03,SSE,157,0.7,4.0,60,0.00,CLR,,0.00,829.4,WeatherDisplay:10.37,2013-08-04 16:43:00,
2013-08-04 11:48:00,91.4,74.5,30.03,SSE,157,2.1,3.5,58,0.00,CLR,,0.00,834.9,WeatherDisplay:10.37,2013-08-04 16:48:00,
2013-08-04 11:53:00,91.7,74.8,30.03,SSE,157,2.3,9.2,58,0.00,CLR,,0.00,856.9,WeatherDisplay:10.37,2013-08-04 16:53:00,
2013-08-04 11:58:00,91.6,74.7,30.03,SSE,156,5.5,8.1,58,0.00,CLR,,0.00,883.3,WeatherDisplay:10.37,2013-08-04 16:58:00,
2013-08-04 12:03:00,92.7,74.7,30.03,SSW,206,2.9,7.0,56,0.00,CLR,,0.00,916.3,WeatherDisplay:10.37,2013-08-04 17:03:00,
2013-08-04 12:08:00,92.7,75.2,30.02,SSW,202,4.5,9.2,57,0.00,CLR,,0.00,930.6,WeatherDisplay:10.37,2013-08-04 17:08:00,
2013-08-04 12:13:00,92.6,73.5,30.02,SSW,204,3.9,6.9,54,0.00,CLR,,0.00,939.4,WeatherDisplay:10.37,2013-08-04 17:13:00,
2013-08-04 12:18:00,93.0,75.5,30.02,SSW,201,4.2,10.0,57,0.00,CLR,,0.00,946.0,WeatherDisplay:10.37,2013-08-04 17:18:00,
2013-08-04 12:23:00,93.3,74.7,30.02,South,175,5.0,8.1,55,0.00,CLR,,0.00,941.6,WeatherDisplay:10.37,2013-08-04 17:23:00,
2013-08-04 12:28:00,93.9,75.3,30.02,SSE,157,3.3,6.9,55,0.00,CLR,,0.00,926.2,WeatherDisplay:10.37,2013-08-04 17:28:00,
2013-08-04 12:33:00,93.5,73.2,30.02,SSW,194,7.2,11.5,52,0.00,CLR,,0.00,913.0,WeatherDisplay:10.37,2013-08-04 17:33:00,
2013-08-04 12:38:00,93.5,74.9,30.01,SSW,193,4.8,11.5,55,0.00,CLR,,0.00,961.4,WeatherDisplay:10.37,2013-08-04 17:38:00,
2013-08-04 12:43:00,93.8,72.9,30.01,SSE,152,2.8,5.8,51,0.00,CLR,,0.00,974.6,WeatherDisplay:10.37,2013-08-04 17:43:00,
2013-08-04 12:48:00,94.3,74.0,30.01,South,189,2.4,7.0,52,0.00,CLR,,0.00,977.9,WeatherDisplay:10.37,2013-08-04 17:48:00,
2013-08-04 12:53:00,94.4,72.9,30.00,South,179,3.5,8.0,50,0.00,CLR,,0.00,980.1,WeatherDisplay:10.37,2013-08-04 17:53:00,
2013-08-04 12:58:00,94.4,74.6,30.00,South,187,6.3,10.4,53,0.00,CLR,,0.00,959.2,WeatherDisplay:10.37,2013-08-04 17:58:00,
2013-08-04 13:03:00,94.5,74.2,30.00,SSW,206,4.5,9.2,52,0.00,SCT,,0.00,976.8,WeatherDisplay:10.37,2013-08-04 18:03:00,
2013-08-04 13:08:00,94.9,73.9,30.00,South,189,3.9,8.1,51,0.00,SCT,,0.00,972.4,WeatherDisplay:10.37,2013-08-04 18:08:00,
2013-08-04 13:13:00,94.6,73.1,30.00,SSW,199,6.5,19.0,50,0.00,SCT,,0.00,990.0,WeatherDisplay:10.37,2013-08-04 18:13:00,
2013-08-04 13:18:00,94.8,73.3,30.00,SSW,207,8.9,11.5,50,0.00,SCT,,0.00,972.4,WeatherDisplay:10.37,2013-08-04 18:18:00,
2013-08-04 13:23:00,95.4,73.8,29.99,SSW,199,7.6,12.7,50,0.00,SCT,,0.00,994.4,WeatherDisplay:10.37,2013-08-04 18:23:00,
2013-08-04 13:28:00,95.7,72.2,29.99,SSE,153,5.1,11.5,47,0.00,SCT,,0.00,1053.8,WeatherDisplay:10.37,2013-08-04 18:28:00,
2013-08-04 13:33:00,94.9,72.8,29.99,SSE,150,1.9,9.2,49,0.00,CLR,,0.00,1002.1,WeatherDisplay:10.37,2013-08-04 18:33:00,
2013-08-04 13:38:00,95.8,73.6,29.99,SSW,201,6.1,11.5,49,0.00,CLR,,0.00,987.8,WeatherDisplay:10.37,2013-08-04 18:38:00,
2013-08-04 13:43:00,95.8,73.0,29.98,South,184,2.7,5.8,48,0.00,CLR,,0.00,980.1,WeatherDisplay:10.37,2013-08-04 18:43:00,
2013-08-04 13:48:00,95.8,71.7,29.98,South,170,4.2,8.1,46,0.00,SCT,,0.00,1013.1,WeatherDisplay:10.37,2013-08-04 18:48:00,
2013-08-04 13:53:00,96.2,72.1,29.98,South,178,3.4,6.9,46,0.00,SCT,,0.00,1007.6,WeatherDisplay:10.37,2013-08-04 18:53:00,
2013-08-04 13:58:00,96.1,72.6,29.98,South,173,2.2,5.8,47,0.00,SCT,,0.00,1040.6,WeatherDisplay:10.37,2013-08-04 18:58:00,
2013-08-04 14:03:00,94.5,72.4,29.98,SSW,196,5.0,13.0,49,0.00,SCT,,0.00,1038.4,WeatherDisplay:10.37,2013-08-04 19:03:00,
2013-08-04 14:08:00,95.5,72.1,29.98,South,188,2.0,5.8,47,0.00,SCT,,0.00,920.7,WeatherDisplay:10.37,2013-08-04 19:08:00,
2013-08-04 14:13:00,96.3,72.2,29.98,SE,141,2.1,8.1,46,0.00,SCT,,0.00,1013.1,WeatherDisplay:10.37,2013-08-04 19:13:00,
2013-08-04 14:18:00,96.7,71.9,29.98,South,183,2.8,10.4,45,0.00,SCT,,0.00,1056.0,WeatherDisplay:10.37,2013-08-04 19:18:00,
2013-08-04 14:23:00,96.0,71.2,29.98,SSE,156,5.3,11.5,45,0.00,SCT,,0.00,185.9,WeatherDisplay:10.37,2013-08-04 19:23:00,
2013-08-04 14:28:00,94.0,70.7,29.97,SSE,157,5.2,8.1,47,0.00,SCT,,0.00,171.6,WeatherDisplay:10.37,2013-08-04 19:28:00,
2013-08-04 14:33:00,94.6,73.1,29.97,South,185,6.6,11.5,50,0.00,SCT,,0.00,1034.0,WeatherDisplay:10.37,2013-08-04 19:33:00,
2013-08-04 14:38:00,96.0,70.6,29.97,SSW,208,2.3,4.6,44,0.00,SCT,,0.00,995.5,WeatherDisplay:10.37,2013-08-04 19:38:00,
2013-08-04 14:43:00,97.0,72.1,29.97,SSW,197,4.2,11.5,45,0.00,SCT,,0.00,1015.3,WeatherDisplay:10.37,2013-08-04 19:43:00,
2013-08-04 14:48:00,95.5,70.1,29.97,SSW,197,0.9,3.5,44,0.00,SCT,,0.00,140.8,WeatherDisplay:10.37,2013-08-04 19:48:00,
2013-08-04 14:53:00,96.2,71.4,29.97,SSW,193,4.5,8.1,45,0.00,SCT,,0.00,1015.3,WeatherDisplay:10.37,2013-08-04 19:53:00,
2013-08-04 14:58:00,95.7,72.9,29.97,SSW,203,0.6,2.3,48,0.00,SCT,,0.00,1056.0,WeatherDisplay:10.37,2013-08-04 19:58:00,
2013-08-04 15:03:00,95.4,70.7,29.97,SSE,158,3.4,5.8,45,0.00,BKN,,0.00,178.2,WeatherDisplay:10.37,2013-08-04 20:03:00,
2013-08-04 15:08:00,95.2,71.8,29.96,SSE,157,1.3,3.5,47,0.00,BKN,,0.00,295.9,WeatherDisplay:10.37,2013-08-04 20:08:00,
2013-08-04 15:13:00,94.2,70.9,29.97,SSE,157,0.7,3.5,47,0.00,BKN,,0.00,155.1,WeatherDisplay:10.37,2013-08-04 20:13:00,
2013-08-04 15:18:00,93.8,72.3,29.96,SSE,152,4.1,9.2,50,0.00,BKN,,0.00,193.6,WeatherDisplay:10.37,2013-08-04 20:18:00,
2013-08-04 15:23:00,96.3,73.4,29.96,SE,141,5.0,6.9,48,0.00,BKN,,0.00,966.9,WeatherDisplay:10.37,2013-08-04 20:23:00,
2013-08-04 15:28:00,98.0,73.0,29.96,SE,139,0.3,2.0,45,0.00,BKN,,0.00,964.7,WeatherDisplay:10.37,2013-08-04 20:28:00,
2013-08-04 15:33:00,97.1,71.6,29.96,SSE,152,3.2,9.2,44,0.00,OVC,,0.00,964.7,WeatherDisplay:10.37,2013-08-04 20:33:00,
2013-08-04 15:38:00,95.6,73.4,29.96,SE,145,0.9,2.3,49,0.00,OVC,,0.00,941.6,WeatherDisplay:10.37,2013-08-04 20:38:00,
2013-08-04 15:43:00,97.2,72.3,29.95,SSE,158,1.8,8.1,45,0.00,OVC,,0.00,145.2,WeatherDisplay:10.37,2013-08-04 20:43:00,
2013-08-04 15:48:00,95.6,70.2,29.96,SSE,158,1.6,6.9,44,0.00,SCT,,0.00,100.1,WeatherDisplay:10.37,2013-08-04 20:48:00,
2013-08-04 15:53:00,94.8,70.8,29.95,SSE,158,0.3,2.3,46,0.00,SCT,,0.00,906.4,WeatherDisplay:10.37,2013-08-04 20:53:00,
2013-08-04 15:58:00,96.6,71.1,29.95,South,185,3.5,9.2,44,0.00,SCT,,0.00,877.8,WeatherDisplay:10.37,2013-08-04 20:58:00,
2013-08-04 16:03:00,96.0,69.9,29.95,South,184,1.2,3.5,43,0.00,BKN,,0.00,152.9,WeatherDisplay:10.37,2013-08-04 21:03:00,
2013-08-04 16:08:00,94.2,69.6,29.95,South,184,0.0,0.0,45,0.00,BKN,,0.00,162.8,WeatherDisplay:10.37,2013-08-04 21:08:00,
2013-08-04 16:13:00,95.4,70.7,29.95,SSE,166,4.4,6.0,45,0.00,BKN,,0.00,858.0,WeatherDisplay:10.37,2013-08-04 21:13:00,
2013-08-04 16:18:00,97.0,71.5,29.95,East,81,1.4,6.9,44,0.00,BKN,,0.00,808.5,WeatherDisplay:10.37,2013-08-04 21:18:00,
2013-08-04 16:23:00,96.9,72.0,29.95,SSE,159,6.3,11.5,45,0.00,BKN,,0.00,793.1,WeatherDisplay:10.37,2013-08-04 21:23:00,
2013-08-04 16:28:00,97.4,69.8,29.94,SSE,157,1.2,4.6,41,0.00,BKN,,0.00,770.0,WeatherDisplay:10.37,2013-08-04 21:28:00,
2013-08-04 16:33:00,97.1,70.2,29.94,SSE,157,1.1,4.6,42,0.00,BKN,,0.00,754.6,WeatherDisplay:10.37,2013-08-04 21:33:00,
2013-08-04 16:38:00,97.2,71.0,29.94,SSE,150,2.9,6.9,43,0.00,BKN,,0.00,734.8,WeatherDisplay:10.37,2013-08-04 21:38:00,
2013-08-04 16:43:00,97.6,70.6,29.94,SE,146,2.1,8.1,42,0.00,BKN,,0.00,738.1,WeatherDisplay:10.37,2013-08-04 21:43:00,
2013-08-04 16:48:00,96.9,70.7,29.94,SE,138,2.7,6.0,43,0.00,SCT,,0.00,752.4,WeatherDisplay:10.37,2013-08-04 21:48:00,
2013-08-04 16:49:00,96.9,71.4,29.94,SE,145,3.3,8.1,44,0.00,SCT,,0.00,738.1,WeatherDisplay:10.37,2013-08-04 21:49:00,
2013-08-04 16:54:00,96.6,70.4,29.94,SE,144,3.9,11.5,43,0.00,SCT,,0.00,704.0,WeatherDisplay:10.37,2013-08-04 21:54:00,
2013-08-04 16:59:00,96.1,70.7,29.94,SE,145,3.1,8.1,44,0.00,SCT,,0.00,79.2,WeatherDisplay:10.37,2013-08-04 21:59:00,
2013-08-04 17:04:00,95.9,69.8,29.94,SSE,150,3.8,8.1,43,0.00,CLR,,0.00,645.7,WeatherDisplay:10.37,2013-08-04 22:04:00,
2013-08-04 17:09:00,97.0,70.8,29.93,SSE,147,2.1,5.8,43,0.00,CLR,,0.00,640.2,WeatherDisplay:10.37,2013-08-04 22:09:00,
2013-08-04 17:14:00,97.1,70.2,29.93,SSE,150,4.1,6.9,42,0.00,CLR,,0.00,117.7,WeatherDisplay:10.37,2013-08-04 22:14:00,
2013-08-04 17:19:00,96.6,69.7,29.93,SSE,148,2.7,6.9,42,0.00,CLR,,0.00,597.3,WeatherDisplay:10.37,2013-08-04 22:19:00,
2013-08-04 17:24:00,97.7,71.4,29.93,SE,130,1.1,2.3,43,0.00,CLR,,0.00,581.9,WeatherDisplay:10.37,2013-08-04 22:24:00,
2013-08-04 17:29:00,97.5,70.5,29.93,SE,131,3.7,5.8,42,0.00,CLR,,0.00,561.0,WeatherDisplay:10.37,2013-08-04 22:29:00,
2013-08-04 17:34:00,97.6,69.9,29.93,SSE,147,3.2,9.2,41,0.00,CLR,,0.00,545.6,WeatherDisplay:10.37,2013-08-04 22:34:00,
2013-08-04 17:39:00,97.2,69.6,29.93,SE,146,2.4,6.0,41,0.00,CLR,,0.00,531.3,WeatherDisplay:10.37,2013-08-04 22:39:00,
2013-08-04 17:44:00,96.9,70.0,29.93,SE,139,1.6,5.8,42,0.00,CLR,,0.00,504.9,WeatherDisplay:10.37,2013-08-04 22:44:00,
2013-08-04 17:49:00,96.9,70.0,29.93,SSE,151,1.1,5.0,42,0.00,CLR,,0.00,495.0,WeatherDisplay:10.37,2013-08-04 22:49:00,
2013-08-04 17:54:00,97.5,69.8,29.92,SE,134,2.8,5.8,41,0.00,CLR,,0.00,471.9,WeatherDisplay:10.37,2013-08-04 22:54:00,
2013-08-04 17:59:00,96.8,69.2,29.92,SE,144,4.5,9.2,41,0.00,CLR,,0.00,451.0,WeatherDisplay:10.37,2013-08-04 22:59:00,
2013-08-04 18:04:00,96.6,69.7,29.92,SE,141,1.7,4.6,42,0.00,CLR,,0.00,387.2,WeatherDisplay:10.37,2013-08-04 23:04:00,
2013-08-04 18:09:00,96.6,68.3,29.92,SSE,147,4.5,6.9,40,0.00,CLR,,0.00,415.8,WeatherDisplay:10.37,2013-08-04 23:09:00,
2013-08-04 18:14:00,96.2,68.7,29.92,SSE,149,1.9,4.6,41,0.00,CLR,,0.00,398.2,WeatherDisplay:10.37,2013-08-04 23:14:00,
2013-08-04 18:19:00,96.6,70.4,29.92,ESE,106,0.4,3.5,43,0.00,CLR,,0.00,382.8,WeatherDisplay:10.37,2013-08-04 23:19:00,
2013-08-04 18:24:00,96.2,69.4,29.92,SSE,152,0.7,6.9,42,0.00,CLR,,0.00,363.0,WeatherDisplay:10.37,2013-08-04 23:24:00,
2013-08-04 18:29:00,96.3,70.2,29.92,SE,126,1.9,4.6,43,0.00,CLR,,0.00,342.1,WeatherDisplay:10.37,2013-08-04 23:29:00,
2013-08-04 18:34:00,95.9,70.5,29.92,SE,132,2.4,5.8,44,0.00,CLR,,0.00,321.2,WeatherDisplay:10.37,2013-08-04 23:34:00,
2013-08-04 18:39:00,96.1,70.7,29.91,ESE,112,2.3,5.8,44,0.00,CLR,,0.00,303.6,WeatherDisplay:10.37,2013-08-04 23:39:00,
2013-08-04 18:44:00,95.4,69.4,29.91,SE,129,1.3,5.8,43,0.00,CLR,,0.00,188.1,WeatherDisplay:10.37,2013-08-04 23:44:00,
2013-08-04 18:49:00,94.5,70.5,29.91,SE,125,1.2,6.9,46,0.00,CLR,,0.00,58.3,WeatherDisplay:10.37,2013-08-04 23:49:00,
2013-08-04 18:54:00,93.9,70.0,29.91,SE,134,1.3,5.8,46,0.00,CLR,,0.00,53.9,WeatherDisplay:10.37,2013-08-04 23:54:00,
2013-08-04 18:59:00,93.5,70.2,29.91,SE,131,3.0,5.0,47,0.00,CLR,,0.00,56.1,WeatherDisplay:10.37,2013-08-04 23:59:00,
2013-08-04 19:04:00,93.3,70.1,29.91,SE,129,0.5,3.5,47,0.00,CLR,,0.00,59.4,WeatherDisplay:10.37,2013-08-05 00:04:00,
2013-08-04 19:09:00,93.0,70.4,29.91,SE,126,1.1,4.6,48,0.00,CLR,,0.00,46.2,WeatherDisplay:10.37,2013-08-05 00:09:00,
2013-08-04 19:14:00,92.6,70.6,29.91,SE,126,0.7,1.2,49,0.00,CLR,,0.00,44.0,WeatherDisplay:10.37,2013-08-05 00:14:00,
2013-08-04 19:19:00,92.5,70.0,29.91,SE,126,2.4,5.8,48,0.00,CLR,,0.00,44.0,WeatherDisplay:10.37,2013-08-05 00:19:00,
2013-08-04 19:24:00,92.4,70.5,29.92,SE,133,1.4,2.3,49,0.00,CLR,,0.00,48.4,WeatherDisplay:10.37,2013-08-05 00:24:00,
2013-08-04 19:29:00,92.5,70.6,29.92,SE,133,2.6,6.9,49,0.00,CLR,,0.00,94.6,WeatherDisplay:10.37,2013-08-05 00:29:00,
2013-08-04 19:34:00,91.9,70.0,29.92,SE,132,2.2,4.6,49,0.00,CLR,,0.00,33.0,WeatherDisplay:10.37,2013-08-05 00:34:00,
2013-08-04 19:39:00,91.5,70.2,29.92,SE,133,0.6,5.8,50,0.00,CLR,,0.00,30.8,WeatherDisplay:10.37,2013-08-05 00:39:00,
2013-08-04 19:44:00,90.9,70.8,29.92,SE,133,2.2,6.9,52,0.00,CLR,,0.00,27.5,WeatherDisplay:10.37,2013-08-05 00:44:00,
2013-08-04 19:49:00,90.7,70.1,29.93,SE,133,1.9,7.0,51,0.00,CLR,,0.00,25.3,WeatherDisplay:10.37,2013-08-05 00:49:00,
2013-08-04 19:54:00,90.4,70.4,29.92,SE,133,2.1,4.6,52,0.00,CLR,,0.00,23.1,WeatherDisplay:10.37,2013-08-05 00:54:00,
2013-08-04 19:59:00,89.6,70.8,29.93,SE,133,1.6,5.0,54,0.00,CLR,,0.00,19.8,WeatherDisplay:10.37,2013-08-05 00:59:00,
2013-08-04 20:04:00,89.4,70.0,29.93,SE,133,1.7,4.6,53,0.00,CLR,,0.00,15.4,WeatherDisplay:10.37,2013-08-05 01:04:00,
2013-08-04 20:09:00,89.2,70.4,29.93,SE,133,0.9,3.5,54,0.00,CLR,,0.00,13.2,WeatherDisplay:10.37,2013-08-05 01:09:00,
2013-08-04 20:14:00,88.8,70.5,29.93,SE,133,0.1,1.2,55,0.00,CLR,,0.00,9.9,WeatherDisplay:10.37,2013-08-05 01:14:00,
2013-08-04 20:19:00,88.3,70.1,29.93,SE,133,1.1,3.5,55,0.00,CLR,,0.00,5.5,WeatherDisplay:10.37,2013-08-05 01:19:00,
2013-08-04 20:24:00,87.9,70.2,29.93,SE,133,1.8,4.6,56,0.00,CLR,,0.00,0.0,WeatherDisplay:10.37,2013-08-05 01:24:00,
2013-08-04 20:29:00,87.4,70.3,29.93,SE,133,0.0,2.3,57,0.00,CLR,,0.00,0.0,WeatherDisplay:10.37,2013-08-05 01:29:00,
2013-08-04 20:34:00,86.5,70.0,29.93,SE,133,0.2,1.2,58,0.00,CLR,,0.00,0.0,WeatherDisplay:10.37,2013-08-05 01:34:00,
2013-08-04 20:39:00,86.0,70.0,29.93,SE,133,0.0,0.0,59,0.00,CLR,,0.00,0.0,WeatherDisplay:10.37,2013-08-05 01:39:00,
2013-08-04 20:44:00,85.3,70.3,29.93,SE,133,0.0,3.5,61,0.00,CLR,,0.00,0.0,WeatherDisplay:10.37,2013-08-05 01:44:00,
2013-08-04 20:49:00,84.9,70.4,29.93,SE,133,0.1,1.2,62,0.00,CLR,,0.00,0.0,WeatherDisplay:10.37,2013-08-05 01:49:00,
2013-08-04 20:54:00,84.9,70.4,29.93,SE,133,0.5,2.3,62,0.00,CLR,,0.00,0.0,WeatherDisplay:10.37,2013-08-05 01:54:00,
2013-08-04 20:59:00,85.0,70.5,29.93,SE,133,0.1,1.2,62,0.00,CLR,,0.00,0.0,WeatherDisplay:10.37,2013-08-05 01:59:00,
2013-08-04 21:04:00,84.6,70.6,29.93,SE,133,2.6,5.8,63,0.00,CLR,,0.00,0.0,WeatherDisplay:10.37,2013-08-05 02:04:00,
2013-08-04 21:09:00,84.7,70.7,29.94,SE,133,0.0,1.2,63,0.00,CLR,,0.00,0.0,WeatherDisplay:10.37,2013-08-05 02:09:00,
2013-08-04 21:14:00,84.9,70.4,29.94,SE,133,1.8,4.6,62,0.00,CLR,,0.00,0.0,WeatherDisplay:10.37,2013-08-05 02:14:00,
2013-08-04 21:19:00,84.7,70.2,29.94,SE,133,0.7,3.5,62,0.00,CLR,,0.00,0.0,WeatherDisplay:10.37,2013-08-05 02:19:00,
2013-08-04 21:24:00,84.7,70.7,29.94,SE,133,0.5,3.5,63,0.00,CLR,,0.00,0.0,WeatherDisplay:10.37,2013-08-05 02:24:00,
2013-08-04 21:29:00,84.9,70.4,29.94,SE,133,1.2,3.5,62,0.00,CLR,,0.00,0.0,WeatherDisplay:10.37,2013-08-05 02:29:00,
2013-08-04 21:34:00,84.7,70.7,29.94,SE,133,0.3,2.3,63,0.00,CLR,,0.00,0.0,WeatherDisplay:10.37,2013-08-05 02:34:00,
2013-08-04 21:39:00,84.4,70.9,29.95,SE,133,0.3,0.0,64,0.00,CLR,,0.00,0.0,WeatherDisplay:10.37,2013-08-05 02:39:00,
2013-08-04 21:44:00,84.1,70.6,29.95,SE,133,0.4,2.3,64,0.00,CLR,,0.00,0.0,WeatherDisplay:10.37,2013-08-05 02:44:00,
2013-08-04 21:49:00,83.6,71.0,29.95,SE,133,0.3,1.2,66,0.00,CLR,,0.00,0.0,WeatherDisplay:10.37,2013-08-05 02:49:00,
2013-08-04 21:54:00,83.0,70.9,29.95,SE,133,0.0,0.0,67,0.00,CLR,,0.00,0.0,WeatherDisplay:10.37,2013-08-05 02:54:00,
2013-08-04 21:59:00,82.7,71.1,29.96,SE,133,0.3,4.0,68,0.00,CLR,,0.00,0.0,WeatherDisplay:10.37,2013-08-05 02:59:00,
2013-08-04 22:04:00,82.7,71.1,29.96,SE,133,0.2,2.3,68,0.00,CLR,,0.00,0.0,WeatherDisplay:10.37,2013-08-05 03:04:00,
2013-08-04 22:10:00,82.5,70.9,29.96,SE,133,0.2,1.2,68,0.00,CLR,,0.00,0.0,WeatherDisplay:10.37,2013-08-05 03:10:00,
2013-08-04 22:14:00,82.3,71.1,29.97,SE,133,0.1,1.2,69,0.00,CLR,,0.00,0.0,WeatherDisplay:10.37,2013-08-05 03:14:00,
2013-08-04 22:20:00,82.0,70.8,29.97,SE,133,0.0,0.0,69,0.00,CLR,,0.00,0.0,WeatherDisplay:10.37,2013-08-05 03:20:00,
2013-08-04 22:25:00,81.7,71.0,29.97,SE,133,0.4,1.2,70,0.00,CLR,,0.00,0.0,WeatherDisplay:10.37,2013-08-05 03:25:00,
2013-08-04 22:29:00,81.3,71.0,29.97,SE,133,0.1,1.2,71,0.00,CLR,,0.00,0.0,WeatherDisplay:10.37,2013-08-05 03:29:00,
2013-08-04 22:35:00,81.4,71.1,29.97,SE,133,0.1,1.2,71,0.00,CLR,,0.00,0.0,WeatherDisplay:10.37,2013-08-05 03:35:00,
2013-08-04 22:40:00,81.6,71.3,29.97,SE,133,0.4,1.2,71,0.00,CLR,,0.00,0.0,WeatherDisplay:10.37,2013-08-05 03:40:00,
2013-08-04 22:45:00,81.7,71.4,29.97,SE,133,0.3,1.2,71,0.00,CLR,,0.00,0.0,WeatherDisplay:10.37,2013-08-05 03:45:00,
2013-08-04 22:49:00,81.5,71.6,29.97,SE,133,1.8,3.5,72,0.00,CLR,,0.00,0.0,WeatherDisplay:10.37,2013-08-05 03:49:00,
2013-08-04 22:55:00,81.3,71.4,29.97,SE,133,0.8,2.3,72,0.00,CLR,,0.00,0.0,WeatherDisplay:10.37,2013-08-05 03:55:00,
2013-08-04 23:00:00,81.3,71.4,29.97,SE,133,1.5,3.5,72,0.00,CLR,,0.00,0.0,WeatherDisplay:10.37,2013-08-05 04:00:00,
2013-08-04 23:01:00,81.2,71.3,29.97,SE,133,1.2,2.3,72,0.00,CLR,,0.00,0.0,WeatherDisplay:10.37,2013-08-05 04:01:00,
2013-08-04 23:02:00,81.2,71.3,29.97,SE,133,0.7,2.0,72,0.00,CLR,,0.00,0.0,WeatherDisplay:10.37,2013-08-05 04:02:00,
2013-08-04 23:07:00,81.1,71.6,29.97,SE,133,1.1,4.0,73,0.00,CLR,,0.00,0.0,WeatherDisplay:10.37,2013-08-05 04:07:00,
2013-08-04 23:12:00,81.1,71.6,29.97,SE,133,1.2,2.3,73,0.00,CLR,,0.00,0.0,WeatherDisplay:10.37,2013-08-05 04:12:00,
2013-08-04 23:17:00,81.1,71.6,29.97,SE,133,2.1,3.5,73,0.00,CLR,,0.00,0.0,WeatherDisplay:10.37,2013-08-05 04:17:00,
2013-08-04 23:22:00,81.0,71.5,29.97,SE,133,1.9,4.0,73,0.00,CLR,,0.00,0.0,WeatherDisplay:10.37,2013-08-05 04:22:00,
2013-08-04 23:27:00,80.9,71.4,29.97,SE,133,1.5,3.5,73,0.00,CLR,,0.00,0.0,WeatherDisplay:10.37,2013-08-05 04:27:00,
2013-08-04 23:32:00,80.6,71.5,29.97,SE,133,3.4,5.0,74,0.00,CLR,,0.00,0.0,WeatherDisplay:10.37,2013-08-05 04:32:00,
2013-08-04 23:37:00,80.8,71.3,29.97,SE,133,2.0,4.6,73,0.00,CLR,,0.00,0.0,WeatherDisplay:10.37,2013-08-05 04:37:00,
2013-08-04 23:42:00,81.2,71.3,29.97,SE,133,3.0,5.8,72,0.00,CLR,,0.00,0.0,WeatherDisplay:10.37,2013-08-05 04:42:00,
2013-08-04 23:47:00,81.2,70.9,29.96,SE,133,1.4,4.0,71,0.00,CLR,,0.00,0.0,WeatherDisplay:10.37,2013-08-05 04:47:00,
2013-08-04 23:52:00,81.4,71.1,29.96,SE,135,4.2,6.9,71,0.00,CLR,,0.00,0.0,WeatherDisplay:10.37,2013-08-05 04:52:00,
2013-08-04 23:57:00,81.7,71.0,29.97,SE,138,4.3,5.0,70,0.00,CLR,,0.00,0.0,WeatherDisplay:10.37,2013-08-05 04:57:00,